This is the latest recevied weather packets stored in our database for station/object K2NV. If no packets are shown the sender has not sent any weather packets the latest 1 day(s).
| Time | Temp. | Humidity | Pressure | Rain* | Wind** | Luminosity | Snow |
|---|---|---|---|---|---|---|---|
| 1778045657 | 8.89° C | 93% | 1007.5 hPa | 0.76 mm | - | - | - |
| 1778045055 | 8.89° C | 93% | 1007.7 hPa | 1.02 mm | - | - | - |
| 1778044455 | 8.89° C | 93% | 1007.7 hPa | 0.76 mm | - | - | - |
| 1778044156 | 8.89° C | 93% | 1007.9 hPa | 0.76 mm | - | - | - |
| 1778043857 | 8.89° C | 93% | 1007.9 hPa | 0.76 mm | - | - | - |
| 1778043557 | 8.89° C | 93% | 1007.9 hPa | 0 mm | - | - | - |
| 1778043256 | 8.89° C | 93% | 1007.8 hPa | 0 mm | - | - | - |
| 1778042958 | 8.89° C | 93% | 1007.7 hPa | 0 mm | - | - | - |
| 1778042356 | 8.89° C | 92% | 1007.6 hPa | 0 mm | - | - | - |
| 1778041757 | 8.89° C | 92% | 1007.4 hPa | 0 mm | - | - | - |
| 1778041458 | 8.89° C | 92% | 1007.4 hPa | 0 mm | - | - | - |
| 1778041157 | 8.89° C | 92% | 1007.3 hPa | 0 mm | - | - | - |
| 1778040856 | 8.89° C | 92% | 1007.1 hPa | 0 mm | - | - | - |
| 1778039958 | 8.89° C | 92% | 1007.2 hPa | 0 mm | - | - | - |
| 1778039657 | 8.89° C | 92% | 1007.3 hPa | 0 mm | - | - | - |
| 1778039358 | 8.89° C | 92% | 1007.2 hPa | 0.25 mm | - | - | - |
| 1778039057 | 8.89° C | 92% | 1007.2 hPa | 0.25 mm | - | - | - |
| 1778038758 | 8.89° C | 92% | 1007.3 hPa | 0.25 mm | - | - | - |
| 1778038457 | 8.89° C | 92% | 1007.4 hPa | 0.25 mm | - | - | - |
| 1778037557 | 9.44° C | 92% | 1007.5 hPa | 0.51 mm | - | - | - |
| 1778037256 | 9.44° C | 92% | 1007.8 hPa | 0.51 mm | - | - | - |
| 1778036958 | 9.44° C | 92% | 1007.5 hPa | 0.51 mm | - | - | - |
| 1778036057 | 9.44° C | 92% | 1007.8 hPa | 0.76 mm | - | - | - |
| 1778035758 | 9.44° C | 92% | 1007.7 hPa | 0.51 mm | - | - | - |
| 1778035456 | 9.44° C | 92% | 1007.6 hPa | 0.51 mm | - | - | - |
* Rain latest hour (hover to see other rain measurements)
** Current wind speed in m/s (hover to see current wind gust speed)